Regional Weather Roundup
Issued by NWS

Home | Current Version | Previous Version | Text Only | Print | Product List | Glossary On
Versions: 1 2 3 4 5 6 7 8 9 10 11 12 13 14 15 16 17 18 19 20 21 22 23 24 25 26 27 28 29 30 31 32 33 34 35 36 37 38 39 40 41 42 43 44 45 46 47 48 49 50
153
ASUS43 KFSD 170002
RWRSD

WEATHER ROUNDUP FOR SOUTH DAKOTA
NATIONAL WEATHER SERVICE SIOUX FALLS SD
600 PM CST MON JAN 16 2017

NOTE: "FAIR" INDICATES FEW OR NO CLOUDS BELOW 12,000 FEET WITH NO
SIGNIFICANT WEATHER AND/OR OBSTRUCTIONS TO VISIBILITY.


SDZ001>005-009-010-012>017-170100-
NORTHWEST AND NORTH CENTRAL SOUTH DAKOTA

CITY           SKY/WX    TMP DP  RH WIND       PRES   REMARKS
BUFFALO          N/A     20  11  68 W13       30.04R WCI   7
FAITH            N/A     19  15  84 NW15      30.08R WCI   5
MOBRIDGE       CLEAR     13   7  77 NW8       30.05S WCI   2
$$

SDZ012>016-024>037-041>051-057-063-072>074-170100-
SOUTHWEST AND SOUTH CENTRAL SOUTH DAKOTA

CITY           SKY/WX    TMP DP  RH WIND       PRES   REMARKS
RAPID CTY ARPT CLEAR     28  17  63 N17       30.08R WCI  16
PIERRE         CLEAR     18  12  77 NW9       30.07R WCI   7
CUSTER         CLEAR     32   9  38 CALM      30.04R
ELLSWORTH AFB  CLEAR     30  16  55 N20       30.07R WCI  18
PHILIP         CLOUDY    22  16  78 NW14      30.08S WCI   9
PINE RIDGE     CLOUDY    21  16  81 SW3       30.09R
SPEARFISH      FAIR      28  14  54 W6        30.10R WCI  22
WINNER         FAIR      23  15  71 NW13      30.07R WCI  11
$$

SDZ004>011-016>023-039-040-170100-
NORTHEAST SOUTH DAKOTA

CITY           SKY/WX    TMP DP  RH WIND       PRES   REMARKS
ABERDEEN       CLOUDY    11   5  77 CALM      30.07R
WATERTOWN      CLOUDY    19  16  88 N3        30.00R
BROOKINGS      CLOUDY    24  20  84 N6        29.99R WCI  17
SISSETON         N/A     13  11  92 N6        30.05R WCI   4
$$

SDZ017-020-022-023-036>040-048>070-170100-
SOUTHEAST SOUTH DAKOTA

CITY           SKY/WX    TMP DP  RH WIND       PRES   REMARKS
SIOUX FALLS    FRZ RAIN  31  29  92 N8        29.99R FOG     WCI  23
HURON          CLOUDY    14  10  84 NW9       30.06R WCI   2
CHAMBERLAIN    CLOUDY    20  14  77 W8        30.08R WCI  10
MITCHELL       CLOUDY    21  15  78 NW10      30.06R WCI  10
YANKTON        CLOUDY    28  25  86 CALM      30.00R
$$

ABBREVIATIONS USED IN REMARKS
   TC - TEMPERATURE IN CELSIUS
  WCI - WIND CHILL INDEX
   HX - HEAT INDEX
  VSB - VISIBILITY





USA.gov is the U.S. government's official web portal to all federal, state and local government web resources and services.